Regional Weather Roundup
Issued by NWS

Home | Current Version | Previous Version | Graphics & Text | Print | Product List | Glossary Off
Versions: 1 2 3 4 5 6 7 8 9 10 11 12 13 14 15 16 17 18 19 20 21 22 23 24 25 26 27 28 29 30 31 32 33 34 35 36 37 38 39 40 41 42 43 44 45 46 47 48 49 50

893
ASUS43 KTOP 041308
RWRKS

WEATHER ROUNDUP FOR KANSAS
NATIONAL WEATHER SERVICE GOODLAND KS
800 AM CDT WED MAY 04 2016

NOTE:  "FAIR" INDICATES FEW OR NO CLOUDS BELOW 12,000 FEET WITH NO
SIGNIFICANT WEATHER AND/OR OBSTRUCTIONS TO VISIBILITY.

KSZ001>006-013>018-027>032-041>047-041400-
NORTHWEST KANSAS

CITY           SKY/WX    TMP DP  RH WIND       PRES   REMARKS
GOODLAND       SUNNY     48  37  65 W12       30.18R
HAYS           SUNNY     52  37  58 NW10      30.10R
HILL CITY      SUNNY     53  41  63 N12       30.12R
RUSSELL        SUNNY     51  44  77 NW7       30.07R
$$

KSZ061>065-074>080-084>089-041400-
SOUTHWEST KANSAS

CITY           SKY/WX    TMP DP  RH WIND       PRES   REMARKS
DODGE CITY     SUNNY     49  39  68 W14       30.12R
ELKHART          N/A     47  37  68 W9          N/A
GARDEN CITY    SUNNY     47  38  71 NW12      30.14R
GREAT BEND     SUNNY     50  39  66 NW9       30.08R
LIBERAL        SUNNY     48  39  71 NW13      30.17R
PRATT          SUNNY     49  42  75 NW15      30.07R
$$

KSZ066>073-081>083-090>101-041400-
SOUTHEAST KANSAS

CITY           SKY/WX    TMP DP  RH WIND       PRES   REMARKS
CHANUTE        SUNNY     58  46  64 NW12      29.95R
COFFEYVILLE    SUNNY     58  47  66 W8        29.95R
HUTCHINSON     SUNNY     54  46  74 NW9       30.04R
MEDICINE LODGE   N/A     52  46  80 W8        30.05R
NEWTON         SUNNY     54  43  66 NW13      30.03R
PARSONS        SUNNY     56  50  80 CALM      29.96R
WICHITA INTL   SUNNY     58  45  62 NW17G26   30.02R
WICHITA JABRA  SUNNY     55  46  71 NW12      30.01R
WICHITA MCCONL SUNNY     58  45  62 NW14      30.01R
WINFIELD       SUNNY     53  47  79 W6        30.27F
$$

KSZ007>012-019>026-033>040-048>060-102>105-041400-
NORTHEAST KANSAS

CITY           SKY/WX    TMP DP  RH WIND       PRES   REMARKS
CONCORDIA      SUNNY     53  41  63 N8        30.05R
EMPORIA        SUNNY     56  45  66 NW9       29.97R
LAWRENCE       SUNNY     55  44  66 N13       29.94R
MANHATTAN      SUNNY     56  43  61 N5        30.00R
MARYSVILLE     SUNNY     52  43  71 N12       30.01R
OLATHE IND     SUNNY     56  43  61 NW12      29.93R
OLATHE EXE     SUNNY     56  41  57 N10       29.91R
SALINA         MOSUNNY   54  47  77 NW8       30.04R
TOPEKA BILLARD SUNNY     55  44  66 NW10      29.96R
TOPEKA FORBES  SUNNY     57  43  59 N13       29.96R
$$




USA.gov is the U.S. government's official web portal to all federal, state and local government web resources and services.